This demonstration page uses our WeatherBlox Daily Observations layout. Learn more.

Left ArrowRight Arrow

Hourly Observations for June 21, 2019

Temp ( °F °C ) Dew Point ( °F °C ) Humidity (%) Winds ( mph kmh ) Pressure ( in mb ) Visibility ( mi km ) Precip ( " mm )
12:53 am 00:53 Clear 43 6.1 41 5 93 93 Calm 29.79 1009 10 16 0.00 0.00
1:53 am 01:53 Partly Cloudy 39 3.9 37 2.8 93 93 undefined N/A 29.82 1010 10 16 0.00 0.00
2:53 am 02:53 Clear 37 2.8 36 2.2 96 96 S 5 7 29.81 1009 10 16 0.00 0.00
3:53 am 03:53 Clear 38 3.3 37 2.8 97 97 S 5 7 29.82 1010 10 16 0.00 0.00
4:53 am 04:53 Clear 37 2.8 36 2.2 96 96 W 7 11 29.83 1010 10 16 0.00 0.00
5:53 am 05:53 Sunny 40 4.4 39 3.9 97 97 WSW 7 11 29.84 1011 10 16 0.00 0.00
6:53 am 06:53 Partly Cloudy 44 6.7 42 5.6 93 93 WSW 7 11 29.84 1011 10 16 0.00 0.00
7:53 am 07:53 Cloudy 48 8.9 44 6.7 86 86 WNW 9 15 29.85 1011 10 16 0.00 0.00
8:48 am 08:48 Cloudy with Light Rain 48 9 45 7 87 87 NW 5 7 29.87 1011 7 11 0.01 0.25
8:53 am 08:53 Cloudy with Light Rain 48 8.9 45 7.2 89 89 NW 3 6 29.87 1012 9 14 0.01 0.25
9:30 am 09:30 Cloudy with Light Rain 49 9.4 46 7.8 90 90 NNW 8 13 29.87 1012 10 16 0.02 0.51
9:53 am 09:53 Cloudy with Light Rain 49 9.4 46 7.8 90 90 NW 7 11 29.88 1012 10 16 0.02 0.51
10:11 am 10:11 Cloudy with Light Rain 49 9.4 47 8.3 93 93 NW 8 13 29.87 1012 10 16 0.01 0.25
10:53 am 10:53 Cloudy with Light Rain 49 9.4 46 7.8 90 90 NNW 7 11 29.89 1012 6 10 0.04 1.02
11:53 am 11:53 Cloudy with Light Rain 50 10 47 8.3 89 89 NW 9 15 29.89 1012 7 11 0.11 2.79
12:53 pm 12:53 Cloudy with Light Rain 52 11.1 48 8.9 86 86 WNW 13 20 29.88 1012 10 16 0.03 0.76
1:53 pm 13:53 Cloudy with Light Rain 53 11.7 47 8.3 80 80 NW 17 28 29.88 1012 10 16 0.00 0.03
2:44 pm 14:44 Cloudy with Rain 50 10 46 8 88 88 NW 17 28 29.87 1011 3 4 0.00 0.00
2:47 pm 14:47 Cloudy with Heavy Rain 50 10 46 8 88 88 NNW 12 19 29.87 1011 2 2 0.07 1.78
2:53 pm 14:53 Cloudy with Light Rain 50 10 48 8.9 93 93 NW 8 13 29.91 1013 2 3 0.10 2.54
3:01 pm 15:01 Cloudy with Light Rain 51 10.6 48 8.9 89 89 NW 8 13 29.86 1011 10 16 0.01 0.25
3:53 pm 15:53 Cloudy with Light Rain 52 11.1 49 9.4 89 89 WNW 7 11 29.89 1012 10 16 0.03 0.76
4:53 pm 16:53 Cloudy with Light Rain 50 10 46 7.8 86 86 NW 12 19 29.91 1013 10 16 0.07 1.78
5:53 pm 17:53 Cloudy with Light Rain 50 10 48 8.9 93 93 W 10 17 29.90 1013 10 16 0.01 0.25
6:53 pm 18:53 Cloudy with Light Rain 51 10.6 49 9.4 92 92 W 12 19 29.88 1012 10 16 0.05 1.27
7:53 pm 19:53 Cloudy with Light Rain 50 10 48 8.9 93 93 WSW 9 15 29.86 1011 8 13 0.02 0.51
8:53 pm 20:53 Cloudy 50 10 49 9.4 96 96 WSW 13 20 29.85 1011 10 16 0.02 0.51
9:53 pm 21:53 Cloudy with Light Rain 50 10 49 9.4 96 96 W 12 19 29.86 1011 9 14 0.03 0.76
10:53 pm 22:53 Cloudy with Light Rain 50 10 49 9.4 96 96 W 12 19 29.85 1011 9 14 0.03 0.76
11:53 pm 23:53 Cloudy with Light Rain 50 10 49 9.4 96 96 WSW 14 22 29.84 1011 6 10 0.04 1.02

Powered by AerisWeather